Weather reports worldwide

Advertisment
Ioannina, Greece (16642): temperature & dewpoint: 13.02.2018 08:00:00 - 19.02.2018 08:00:00 (EET)Ioannina, Greece (16642): reduced air pressure: 13.02.2018 08:00:00 - 19.02.2018 08:00:00 (EET)Ioannina, Greece (16642): visibility: 13.02.2018 08:00:00 - 19.02.2018 08:00:00 (EET)
Date & Time tt [°C] td [°C] ppp [hPa] vv [km]
19.02.2018 08:00:00 - - - -
19.02.2018 07:00:00 - - - -
19.02.2018 06:00:00 - - - -
19.02.2018 05:00:00 - - - -
19.02.2018 04:00:00 - - - -
19.02.2018 03:00:00 - - - -
19.02.2018 02:00:00 - - - -
19.02.2018 01:00:00 - - - -
19.02.2018 00:00:00 - - - -
18.02.2018 23:00:00 - - - -
18.02.2018 22:00:00 - - - -
18.02.2018 21:00:00 9,0 6,0 - 10
18.02.2018 20:00:00 9,4 6,4 1017,3 10
18.02.2018 19:00:00 10,0 6,0 - 10
18.02.2018 18:00:00 11,0 6,0 - 10
18.02.2018 17:00:00 11,4 5,4 1016,3 10
18.02.2018 16:00:00 - - - -
18.02.2018 15:00:00 - - - -
18.02.2018 14:00:00 14,0 3,4 1017,0 10
18.02.2018 13:00:00 13,0 5,0 - 10
18.02.2018 12:00:00 12,0 6,0 - 10
18.02.2018 11:00:00 10,2 5,4 1019,9 10
18.02.2018 10:00:00 8,0 3,0 - 10
18.02.2018 09:00:00 4,0 2,0 - 10
18.02.2018 08:00:00 3,0 2,0 1021,8 10
18.02.2018 07:00:00 - - - -
18.02.2018 06:00:00 - - - -
18.02.2018 05:00:00 - - - -
18.02.2018 04:00:00 - - - -
18.02.2018 03:00:00 - - - -
18.02.2018 02:00:00 - - - -
18.02.2018 01:00:00 - - - -
18.02.2018 00:00:00 - - - -
17.02.2018 23:00:00 - - - -
17.02.2018 22:00:00 - - - -
17.02.2018 21:00:00 8,0 4,0 - 10
17.02.2018 20:00:00 9,0 5,0 1021,6 10
17.02.2018 19:00:00 10,0 4,0 - 10
17.02.2018 18:00:00 15,0 2,0 - 10
17.02.2018 17:00:00 14,8 1,6 1019,6 10
17.02.2018 16:00:00 - - - -
17.02.2018 15:00:00 - - - -
17.02.2018 14:00:00 15,2 4,0 1020,6 10
17.02.2018 13:00:00 13,0 5,0 - 10
17.02.2018 12:00:00 10,0 4,0 - 10
17.02.2018 11:00:00 8,0 3,3 1023,9 10
17.02.2018 10:00:00 5,0 4,0 - 10
17.02.2018 09:00:00 1,0 1,0 - 10
17.02.2018 08:00:00 -1,0 -1,7 1026,3 10
17.02.2018 07:00:00 - - - -
17.02.2018 06:00:00 - - - -
17.02.2018 05:00:00 - - - -
17.02.2018 04:00:00 - - - -
17.02.2018 03:00:00 - - - -
17.02.2018 02:00:00 - - - -
17.02.2018 01:00:00 - - - -
17.02.2018 00:00:00 - - - -
16.02.2018 23:00:00 - - - -
16.02.2018 22:00:00 - - - -
16.02.2018 21:00:00 7,0 2,0 - 10
16.02.2018 20:00:00 9,0 3,5 1022,2 10
16.02.2018 19:00:00 11,0 4,0 - 10
16.02.2018 18:00:00 13,0 3,0 - 10
16.02.2018 17:00:00 14,2 2,5 1019,6 10
16.02.2018 16:00:00 15,0 3,0 - 10
16.02.2018 15:00:00 16,0 0,0 - 10
16.02.2018 14:00:00 15,2 4,0 1019,1 10
16.02.2018 13:00:00 12,0 -1,0 - 10
16.02.2018 12:00:00 11,0 0,0 - 10
16.02.2018 11:00:00 10,0 0,8 1021,0 10
16.02.2018 10:00:00 7,0 -2,0 - 10
16.02.2018 09:00:00 5,0 -1,0 - 10
16.02.2018 08:00:00 4,0 -2,8 1020,7 10
16.02.2018 07:00:00 - - - -
16.02.2018 06:00:00 - - - -
16.02.2018 05:00:00 - - - -
16.02.2018 04:00:00 - - - -
16.02.2018 03:00:00 - - - -
16.02.2018 02:00:00 - - - -
16.02.2018 01:00:00 - - - -
16.02.2018 00:00:00 - - - -
15.02.2018 23:00:00 - - - -
15.02.2018 22:00:00 - - - -
15.02.2018 21:00:00 7,0 -2,0 - 10
15.02.2018 20:00:00 7,4 -1,6 1013,5 10
15.02.2018 19:00:00 6,0 -1,0 - 10
15.02.2018 18:00:00 7,0 0,0 - 10
15.02.2018 17:00:00 7,0 -2,2 1011,9 10
15.02.2018 16:00:00 - - - -
15.02.2018 15:00:00 - - - -
15.02.2018 14:00:00 7,8 -1,0 1009,8 10
15.02.2018 13:00:00 9,0 -1,0 - 10
15.02.2018 12:00:00 8,0 0,0 - 10
15.02.2018 11:00:00 8,2 0,1 1009,3 10
15.02.2018 10:00:00 6,0 1,0 - 10
15.02.2018 09:00:00 6,0 0,0 - 10
15.02.2018 08:00:00 4,4 1,4 1009,1 10
15.02.2018 07:00:00 - - - -
15.02.2018 06:00:00 - - - -
15.02.2018 05:00:00 - - - -
15.02.2018 04:00:00 - - - -
15.02.2018 03:00:00 - - - -
15.02.2018 02:00:00 - - - -
15.02.2018 01:00:00 - - - -
15.02.2018 00:00:00 - - - -
14.02.2018 23:00:00 - - - -
14.02.2018 22:00:00 - - - -
14.02.2018 21:00:00 3,0 0,0 - 10
14.02.2018 20:00:00 3,6 1,0 1014,3 10
14.02.2018 19:00:00 5,0 2,0 - 10
14.02.2018 18:00:00 6,0 0,0 - 10
14.02.2018 17:00:00 8,4 -0,2 1013,4 10
14.02.2018 16:00:00 - - - -
14.02.2018 15:00:00 - - - -
14.02.2018 14:00:00 6,2 5,3 1013,9 10
14.02.2018 13:00:00 6,0 5,0 - 10
14.02.2018 12:00:00 5,0 4,0 - 10
14.02.2018 11:00:00 4,4 3,4 1014,0 10
14.02.2018 10:00:00 4,0 3,0 - 10
14.02.2018 09:00:00 2,0 2,0 - 10
14.02.2018 08:00:00 2,0 2,0 1012,6 10
14.02.2018 07:00:00 - - - -
14.02.2018 06:00:00 - - - -
14.02.2018 05:00:00 - - - -
14.02.2018 04:00:00 - - - -
14.02.2018 03:00:00 - - - -
14.02.2018 02:00:00 - - - -
14.02.2018 01:00:00 - - - -
14.02.2018 00:00:00 - - - -
13.02.2018 23:00:00 - - - -
13.02.2018 22:00:00 - - - -
13.02.2018 21:00:00 7,0 7,0 - 8
13.02.2018 20:00:00 7,0 6,6 1006,6 8
13.02.2018 19:00:00 7,0 6,0 - 10
13.02.2018 18:00:00 6,0 6,0 - 10
13.02.2018 17:00:00 6,0 5,1 1009,8 10
13.02.2018 16:00:00 - - - -
13.02.2018 15:00:00 - - - -
13.02.2018 14:00:00 6,4 5,9 1012,9 8
13.02.2018 13:00:00 6,0 6,0 - 10
13.02.2018 12:00:00 6,0 6,0 - 10
13.02.2018 11:00:00 5,8 5,3 1014,9 10
13.02.2018 10:00:00 4,0 4,0 - 10
13.02.2018 09:00:00 3,0 2,0 - 10
13.02.2018 08:00:00 1,4 0,8 1016,0 10

tt = temperature
td = dewpoint
ppp = reduced air pressure
vv = visibility

Next stations